Location: Unspecified
(42.3650°N, 71.1030°W)
Time: 13:59:36
(UTC+00:00)

Courier 1B - Pass Details

Date: 01 July 2024
Orbit: 962 x 1209 km, 28.3° (Epoch: 25 July)

Event Time Altitude Azimuth Distance (km) Brightness Sun altitude
Rises 06:18:28 0° 253° (WSW) 3,742 - -21.3°
Reaches altitude 10° 06:22:31 10° 230° (SW) 2,838 - -21.1°
Maximum altitude 06:26:00 14° 200° (SSW) 2,566 - -20.8°
Drops below altitude 10° 06:29:34 10° 169° (S) 2,928 - -20.5°
Sets 06:33:53 0° 147° (SSE) 3,941 - -20.2°
